[[{"header":{"parameterUnit":"m.s-1","parameterCategory":1,"la1":30.2992,"la2":30.254,"lo1":-89.0895,"lo2":-89.0443,"dy":0.0025,"dx":0.0025,"nx":19,"ny":19,"refTime":"2026-03-16T03:00:00:Z","depth":0,"parameterNumber":2,"parameterNumberName":"U-component_of_WINDS"},"data":[0,0,0,3.492,3.492,3.4933,3.4933,3.4963,3.4963,0,0,0,0,0,0,0,0,0,0,0,3.4924,3.4925,3.492,3.492,3.4933,3.4933,3.4963,3.4963,0,0,0,0,0,0,0,0,0,0,0,3.4924,3.4925,3.4925,3.492,3.4933,3.4933,3.4963,3.4948,0,0,0,0,0,0,0,0,0,0,3.4934,3.4946,3.4925,3.4925,3.492,3.4933,3.4933,3.4947,3.4949,3.4963,0,3.4978,0,3.4971,3.4966,3.4966,0,0,0,3.4914,3.4945,3.494,3.4925,3.4921,3.4933,3.4925,3.4948,3.495,3.4966,3.4978,3.4979,3.4972,3.4967,3.4967,3.5066,3.5067,0,0,3.4913,3.4931,3.4939,3.4942,3.4941,3.4925,3.4926,3.4949,3.4964,3.4978,3.4979,3.4972,3.4967,3.4967,3.5065,3.5066,0,0,0,3.4916,3.4931,3.4926,3.4941,3.4943,3.4926,3.4926,3.4963,3.496,3.4979,3.4972,3.4967,3.4968,3.5065,3.5066,3.5119,0,0,0,3.4915,3.4932,3.4926,3.4937,3.4942,3.4953,3.494,3.4958,3.496,3.4972,3.4967,3.4968,3.5064,3.5065,3.5116,3.5142,0,0,0,3.4921,3.4933,3.4938,3.4938,3.4944,3.4952,3.495,3.4958,3.4956,3.4966,3.4968,3.5063,3.5065,3.5113,3.5137,3.5172,0,0,0,3.4932,3.4986,3.4939,3.4996,3.4944,3.4985,3.495,3.498,3.4995,3.4967,3.5064,3.5066,3.5112,3.5134,3.5169,3.5204,3.5221,0,0,3.501,3.4996,3.5029,3.4986,3.504,3.4982,3.5044,3.5041,3.5026,3.5054,3.5056,3.5117,3.5136,3.5171,3.5309,3.5322,0,0,0,3.5059,3.5083,3.5093,3.5108,3.5106,3.5107,3.5093,3.5092,3.5114,3.5044,3.5139,3.515,3.517,3.5186,3.5197,3.5212,3.5074,3.5074,3.5074,3.5196,3.5172,3.5224,3.5202,3.5217,3.5201,3.521,3.5206,3.5179,3.5202,3.521,3.5296,3.5316,3.5324,3.534,3.5227,3.5228,3.5228,3.5228,3.5307,3.5336,3.5297,3.5333,3.5308,3.5339,3.5325,3.5305,3.5329,3.5289,3.5305,3.5262,3.5339,3.5352,3.5232,3.5231,3.5231,3.523,3.523,3.5393,3.5402,3.5399,3.5417,3.5433,3.5409,3.5434,3.5411,3.5389,3.5405,3.541,3.5409,3.5404,3.5409,3.541,3.541,3.541,3.541,3.5411,3.5483,3.5478,3.5501,3.5503,3.5508,3.5512,3.5496,3.5501,3.5501,3.5482,3.5482,3.5452,3.5351,3.5326,3.5415,3.5414,3.5414,3.5413,3.5413,3.5603,3.5572,3.5607,3.5613,3.5612,3.5629,3.5599,3.5611,3.5611,3.5624,3.5591,3.552,3.5504,3.5495,3.5474,3.5596,3.5596,3.5596,3.5596,3.5675,3.5664,3.5694,3.5704,3.5711,3.5687,3.5727,3.5715,3.5697,3.5696,3.5675,3.5645,3.5637,3.5626,3.5614,3.5593,3.5744,3.5744,3.5744,3.5747,3.5735,3.5774,3.5755,3.5753,3.5751,3.5788,3.58,3.5774,3.5749,3.5694,3.5688,3.5639,3.5625,3.5599,3.5581,3.5543,0,0]},{"header":{"parameterUnit":"m.s-1","parameterCategory":1,"la1":30.2992,"la2":30.254,"lo1":-89.0895,"lo2":-89.0443,"dy":0.0025,"dx":0.0025,"nx":19,"ny":19,"refTime":"2026-03-16T03:00:00:Z","depth":0,"parameterNumber":3,"parameterNumberName":"V-component_of_WINDS"},"data":[0,0,0,4.4244,4.4247,4.4386,4.4387,4.4552,4.4553,0,0,0,0,0,0,0,0,0,0,0,4.4196,4.4196,4.4244,4.4247,4.4386,4.4387,4.4552,4.4553,0,0,0,0,0,0,0,0,0,0,0,4.4195,4.4196,4.4197,4.4248,4.4386,4.4387,4.4551,4.4451,0,0,0,0,0,0,0,0,0,0,4.4318,4.4266,4.4196,4.4197,4.4249,4.4386,4.4387,4.4446,4.4457,4.4483,0,4.4505,0,4.4532,4.4564,4.4564,0,0,0,4.4253,4.4256,4.4301,4.4197,4.425,4.4386,4.4325,4.4453,4.4465,4.4498,4.4508,4.4514,4.4535,4.4565,4.4565,4.47,4.47,0,0,4.4245,4.4216,4.4292,4.4308,4.4287,4.4321,4.4329,4.446,4.4469,4.4508,4.4518,4.4537,4.4566,4.4567,4.47,4.47,0,0,0,4.4219,4.4211,4.4252,4.4301,4.4327,4.4325,4.4335,4.4463,4.4479,4.452,4.4539,4.4566,4.4568,4.4699,4.47,4.4692,0,0,0,4.4215,4.4196,4.4249,4.4232,4.4325,4.4397,4.4334,4.447,4.4486,4.4538,4.4567,4.457,4.4699,4.47,4.4691,4.4693,0,0,0,4.4189,4.4193,4.421,4.4231,4.4289,4.4396,4.4419,4.4474,4.4497,4.4564,4.457,4.4699,4.4699,4.4691,4.4692,4.4721,0,0,0,4.4153,4.42,4.421,4.427,4.4288,4.4389,4.4419,4.4495,4.4552,4.4567,4.4699,4.47,4.469,4.4692,4.472,4.4741,4.4747,0,0,4.4196,4.4204,4.4242,4.4255,4.4347,4.437,4.4461,4.454,4.4572,4.4655,4.4659,4.4691,4.4692,4.4721,4.4787,4.4791,0,0,0,4.4246,4.4273,4.4304,4.4357,4.4418,4.4471,4.4539,4.4568,4.4641,4.4609,4.471,4.4711,4.4729,4.4741,4.4744,4.4763,4.4703,4.4703,4.4703,4.4267,4.4307,4.4372,4.4428,4.4479,4.4549,4.4594,4.4645,4.4669,4.4692,4.4717,4.4752,4.4765,4.4768,4.4786,4.473,4.473,4.473,4.473,4.4336,4.4381,4.4413,4.4488,4.4529,4.4592,4.466,4.4675,4.474,4.4736,4.4754,4.4748,4.4771,4.479,4.473,4.473,4.473,4.473,4.473,4.4356,4.4385,4.4419,4.4501,4.4559,4.4613,4.4675,4.4709,4.4742,4.4759,4.4791,4.4792,4.4797,4.4772,4.4772,4.4772,4.4772,4.4772,4.4772,4.4363,4.4403,4.4451,4.452,4.4559,4.4615,4.4685,4.4724,4.4777,4.4797,4.4798,4.482,4.4766,4.4752,4.4775,4.4774,4.4774,4.4774,4.4774,4.4421,4.4414,4.4488,4.4527,4.4612,4.4668,4.4711,4.4788,4.4825,4.4854,4.4872,4.4826,4.4837,4.4834,4.4824,4.4863,4.4863,4.4863,4.4863,4.4439,4.4448,4.4532,4.4592,4.4655,4.4702,4.4784,4.4839,4.4894,4.492,4.4919,4.4907,4.4903,4.4916,4.4912,4.4902,4.4961,4.4961,4.4961,4.4478,4.4495,4.4559,4.4613,4.4682,4.474,4.4819,4.4887,4.4948,4.4966,4.4941,4.4937,4.4918,4.491,4.4928,4.492,4.4904,0,0]}]]